Вернуться в каталог

MORELOS 3

АктивенСвязьGEO
NORAD 40946·PAYLOAD·🇲🇽 Mexico

Запущен Oct 2, 2015 с Cape Canaveral Space Force Station

Loading…

TLE

СвежийSource: Space-Track

Эпоха: Sep 14, 2026, 21:49 UTC

1 40946U 15056A   26257.90917403 -.00000049  00000-0  00000-0 0  9999
2 40946   3.2684  17.2474 0003221 185.9153   4.9320  1.00272664 40182

Отслеживайте MORELOS 3 в реальном времени с AllMySat

Download on the App Store